Flag for Germany Past Weather in Pfaffenhofen an der Ilm, Bavaria, Germany — Yesterday and Last 2 Weeks

Now
73 °F

Partly sunny.


Feels Like: 76 °F
Forecast: 60 / 84 °F
Wind: 1 mph from East

Location: Ingolstadt Airport

Current Time: Aug 17, 2017 at 12:05:27 pm

Latest Report: Aug 17, 2017 at 11:20 am


Visibility: N/A

Pressure: 30.12 "Hg

Humidity: 69%

Dew Point: 63 °F

Location of Pfaffenhofen an der IlmLocation

Past Weather in Pfaffenhofen an der Ilm — Graph

°F

Pfaffenhofen an der Ilm Temperature Yesterday

Maximum temperature yesterday: 75 °F (at 4:20 pm)
Minimum temperature yesterday: 63 °F (at 6:10 am)
Average temperature yesterday: 68 °F

High & Low Weather Summary for the Past Weeks

 TemperatureHumidityPressure
High86 °F (Aug 2, 6:20 pm)100% (Aug 3, 2:20 am)30.21 "Hg (Aug 3, 2:20 am)
Low54 °F (Aug 7, 4:20 am)37% (Aug 14, 5:20 pm)29.86 "Hg (Aug 8, 10:20 am)
Average66 °F77%30.07 "Hg
* Reported Aug 2 10:20 am — Aug 17 10:20 am, Pfaffenhofen an der Ilm. Weather by CustomWeather, © 2017

Note: Actual official high and low records may vary slightly from our data, if they occured in-between our weather recording intervals... More about our weather records

Advertising

Pfaffenhofen an der Ilm Weather History for the Previous 24 Hours

Scroll right to see more
 ConditionsComfort  
Time TempWeatherWind HumidityBarometerVisibility
10:20 am
Thu, Aug 17
72 °FBroken clouds.1 mph73%30.12 "HgN/A
9:20 am68 °FScattered clouds.2 mph78%30.12 "HgN/A
8:20 am64 °FScattered clouds.2 mph83%30.12 "HgN/A
7:20 am61 °FScattered clouds.5 mph94%30.12 "HgN/A
6:20 am59 °FScattered clouds.6 mph94%30.12 "HgN/A
5:20 am61 °FPartly cloudy.2 mph94%30.12 "HgN/A
4:20 am59 °FCool.2 mph100%30.12 "HgN/A
3:20 am61 °FCool.5 mph94%30.12 "HgN/A
2:20 am61 °FCool.2 mph94%30.12 "HgN/A
1:20 am63 °FMild.5 mph88%30.15 "HgN/A
12:20 am63 °FMild.3 mph88%30.15 "HgN/A
11:20 pm
Wed, Aug 16
66 °FMild.2 mph83%30.15 "HgN/A
10:20 pm66 °FMild.3 mph83%30.18 "HgN/A
9:20 pm68 °FMild.1 mph78%30.18 "HgN/A
8:20 pm72 °FPartly sunny.3 mph69%30.15 "HgN/A
7:20 pm73 °FPartly sunny.3 mph61%30.15 "HgN/A
6:20 pm75 °FPartly sunny.2 mph54%30.15 "HgN/A
5:20 pm75 °FScattered clouds.1 mph57%30.15 "HgN/A
4:20 pm75 °FPassing clouds.2 mph54%30.15 "HgN/A
3:20 pm73 °FScattered clouds.5 mph61%30.18 "HgN/A
2:20 pm73 °FScattered clouds.1 mph61%30.18 "HgN/A
1:20 pm72 °FScattered clouds.3 mph65%30.21 "HgN/A
12:20 pm72 °FScattered clouds.6 mph65%30.21 "HgN/A
Weather by CustomWeather, © 2017

See weather overviewHow to use our weather pages